Time,TemperatureF,DewpointF,PressureIn,WindDirection,WindDirectionDegrees,WindSpeedMPH,WindSpeedGustMPH,Humidity,HourlyPrecipIn,Conditions,Clouds,dailyrainin,SoftwareType,DateUTC
2013-08-09 00:08:00,72.0,69.0,30.01,ESE,115,0.0,4.0,91,0.00,,,0.00,weatherlink.com 1.10,2013-08-09 04:08:00,
2013-08-09 00:23:00,72.0,69.0,30.01,ESE,116,0.0,2.0,90,0.00,,,0.00,weatherlink.com 1.10,2013-08-09 04:23:00,
2013-08-09 00:38:00,72.0,69.0,30.01,ESE,107,0.0,3.0,90,0.00,,,0.00,weatherlink.com 1.10,2013-08-09 04:38:00,
2013-08-09 00:53:00,72.1,69.0,30.01,SW,227,0.0,4.0,90,0.00,,,0.00,weatherlink.com 1.10,2013-08-09 04:53:00,
2013-08-09 01:08:00,72.0,69.0,30.00,West,273,0.0,3.0,91,0.00,,,0.00,weatherlink.com 1.10,2013-08-09 05:08:00,
2013-08-09 01:23:00,72.0,69.0,30.00,WSW,237,0.0,4.0,91,0.00,,,0.00,weatherlink.com 1.10,2013-08-09 05:23:00,
2013-08-09 01:38:00,71.9,69.0,30.00,NW,326,0.0,2.0,91,0.00,,,0.00,weatherlink.com 1.10,2013-08-09 05:38:00,
2013-08-09 01:53:00,72.0,69.0,30.00,ESE,115,0.0,2.0,91,0.00,,,0.00,weatherlink.com 1.10,2013-08-09 05:53:00,
2013-08-09 02:08:00,72.0,69.0,29.99,East,99,0.0,1.0,91,0.00,,,0.00,weatherlink.com 1.10,2013-08-09 06:08:00,
2013-08-09 02:23:00,72.0,69.0,29.99,East,82,0.0,2.0,90,0.00,,,0.00,weatherlink.com 1.10,2013-08-09 06:23:00,
2013-08-09 02:38:00,72.0,69.0,29.99,West,273,0.0,5.0,90,0.00,,,0.00,weatherlink.com 1.10,2013-08-09 06:38:00,
2013-08-09 02:53:00,72.3,69.0,29.98,North,11,0.0,3.0,90,0.00,,,0.00,weatherlink.com 1.10,2013-08-09 06:53:00,
2013-08-09 03:08:00,72.3,69.0,29.98,ENE,78,0.0,2.0,90,0.00,,,0.00,weatherlink.com 1.10,2013-08-09 07:08:00,
2013-08-09 03:23:00,72.4,69.0,29.98,ENE,73,1.0,3.0,89,0.00,,,0.00,weatherlink.com 1.10,2013-08-09 07:23:00,
2013-08-09 03:38:00,72.5,69.0,29.98,WNW,291,0.0,3.0,89,0.00,,,0.00,weatherlink.com 1.10,2013-08-09 07:38:00,
2013-08-09 03:53:00,72.6,69.0,29.98,East,90,0.0,5.0,88,0.00,,,0.00,weatherlink.com 1.10,2013-08-09 07:53:00,
2013-08-09 04:08:00,72.5,69.0,29.98,East,80,0.0,1.0,88,0.00,,,0.00,weatherlink.com 1.10,2013-08-09 08:08:00,
2013-08-09 04:23:00,72.4,69.0,29.97,ENE,67,1.0,2.0,88,0.00,,,0.00,weatherlink.com 1.10,2013-08-09 08:23:00,
2013-08-09 04:38:00,72.3,69.0,29.97,NW,313,0.0,2.0,89,0.00,,,0.00,weatherlink.com 1.10,2013-08-09 08:38:00,
2013-08-09 04:53:00,72.3,69.0,29.97,WSW,244,1.0,3.0,89,0.00,,,0.00,weatherlink.com 1.10,2013-08-09 08:53:00,
2013-08-09 05:08:00,72.2,69.0,29.97,SSW,210,0.0,3.0,89,0.00,,,0.00,weatherlink.com 1.10,2013-08-09 09:08:00,
2013-08-09 05:23:00,72.3,69.0,29.97,WNW,283,0.0,3.0,89,0.00,,,0.00,weatherlink.com 1.10,2013-08-09 09:23:00,
2013-08-09 05:38:00,72.3,69.0,29.97,NNE,30,1.0,4.0,90,0.00,,,0.00,weatherlink.com 1.10,2013-08-09 09:38:00,
2013-08-09 05:53:00,72.4,69.0,29.96,East,94,3.0,3.0,90,0.00,,,0.00,weatherlink.com 1.10,2013-08-09 09:53:00,
2013-08-09 06:08:00,72.5,69.0,29.97,East,80,2.0,5.0,89,0.00,,,0.00,weatherlink.com 1.10,2013-08-09 10:08:00,
2013-08-09 06:23:00,72.7,69.0,29.97,ESE,107,0.0,3.0,89,0.00,,,0.00,weatherlink.com 1.10,2013-08-09 10:23:00,
2013-08-09 06:38:00,72.8,70.0,29.97,East,94,1.0,3.0,90,0.00,,,0.00,weatherlink.com 1.10,2013-08-09 10:38:00,
2013-08-09 06:53:00,73.0,70.0,29.97,North,5,0.0,5.0,90,0.00,,,0.00,weatherlink.com 1.10,2013-08-09 10:53:00,
2013-08-09 07:08:00,73.3,70.0,29.98,SW,226,0.0,3.0,90,0.00,,,0.00,weatherlink.com 1.10,2013-08-09 11:08:00,
2013-08-09 07:23:00,73.5,70.0,29.97,ESE,107,0.0,4.0,89,0.00,,,0.00,weatherlink.com 1.10,2013-08-09 11:23:00,
2013-08-09 07:38:00,73.5,70.0,29.97,SE,142,0.0,2.0,89,0.00,,,0.00,weatherlink.com 1.10,2013-08-09 11:38:00,
2013-08-09 07:53:00,73.3,70.0,29.96,ENE,57,0.0,4.0,90,0.00,,,0.00,weatherlink.com 1.10,2013-08-09 11:53:00,
2013-08-09 08:08:00,73.3,70.0,29.96,East,85,0.0,4.0,90,0.00,,,0.00,weatherlink.com 1.10,2013-08-09 12:08:00,
2013-08-09 08:23:00,73.3,71.0,29.97,ESE,113,0.0,3.0,91,0.01,,,0.01,weatherlink.com 1.10,2013-08-09 12:23:00,
2013-08-09 08:38:00,73.1,70.0,29.96,ESE,105,0.0,3.0,91,0.02,,,0.02,weatherlink.com 1.10,2013-08-09 12:38:00,
2013-08-09 08:53:00,72.9,71.0,29.95,ESE,109,0.0,2.0,92,0.03,,,0.03,weatherlink.com 1.10,2013-08-09 12:53:00,
2013-08-09 09:08:00,72.9,71.0,29.95,ESE,112,0.0,3.0,93,0.05,,,0.05,weatherlink.com 1.10,2013-08-09 13:08:00,
2013-08-09 09:23:00,72.9,71.0,29.95,ESE,102,1.0,1.0,93,0.05,,,0.06,weatherlink.com 1.10,2013-08-09 13:23:00,
2013-08-09 09:39:00,72.9,71.0,29.94,West,273,0.0,5.0,93,0.05,,,0.07,weatherlink.com 1.10,2013-08-09 13:39:00,
2013-08-09 09:54:00,72.8,71.0,29.94,East,87,0.0,5.0,93,0.06,,,0.09,weatherlink.com 1.10,2013-08-09 13:54:00,
2013-08-09 10:09:00,72.9,71.0,29.93,East,101,1.0,3.0,94,0.07,,,0.12,weatherlink.com 1.10,2013-08-09 14:09:00,
2013-08-09 10:24:00,72.8,71.0,29.93,East,96,0.0,3.0,94,0.10,,,0.16,weatherlink.com 1.10,2013-08-09 14:24:00,
2013-08-09 10:39:00,72.9,71.0,29.92,SE,128,2.0,7.0,94,0.10,,,0.17,weatherlink.com 1.10,2013-08-09 14:39:00,
2013-08-09 10:54:00,73.2,71.0,29.91,East,80,0.0,4.0,94,0.09,,,0.18,weatherlink.com 1.10,2013-08-09 14:54:00,
2013-08-09 11:09:00,73.4,72.0,29.91,East,85,0.0,6.0,95,0.07,,,0.19,weatherlink.com 1.10,2013-08-09 15:09:00,
2013-08-09 11:24:00,73.5,72.0,29.90,NE,35,2.0,7.0,94,0.04,,,0.21,weatherlink.com 1.10,2013-08-09 15:24:00,
2013-08-09 11:39:00,73.6,72.0,29.90,NNE,26,0.0,6.0,94,0.05,,,0.23,weatherlink.com 1.10,2013-08-09 15:39:00,
2013-08-09 11:54:00,73.6,72.0,29.89,WSW,247,2.0,7.0,94,0.06,,,0.24,weatherlink.com 1.10,2013-08-09 15:54:00,
2013-08-09 12:09:00,72.9,71.0,29.89,WSW,244,2.0,13.0,93,0.07,,,0.26,weatherlink.com 1.10,2013-08-09 16:09:00,
2013-08-09 12:24:00,72.5,70.0,29.88,NE,51,1.0,8.0,93,0.09,,,0.30,weatherlink.com 1.10,2013-08-09 16:24:00,
2013-08-09 12:39:00,72.3,71.0,29.87,SE,146,1.0,5.0,94,0.14,,,0.37,weatherlink.com 1.10,2013-08-09 16:39:00,
2013-08-09 12:54:00,72.4,71.0,29.86,NE,55,0.0,6.0,94,0.16,,,0.40,weatherlink.com 1.10,2013-08-09 16:54:00,
2013-08-09 13:09:00,72.7,71.0,29.86,West,281,0.0,6.0,94,0.17,,,0.44,weatherlink.com 1.10,2013-08-09 17:09:00,
2013-08-09 13:24:00,72.7,71.0,29.84,ESE,105,3.0,8.0,94,0.17,,,0.47,weatherlink.com 1.10,2013-08-09 17:24:00,
2013-08-09 13:39:00,72.0,70.0,29.84,ENE,78,2.0,10.0,93,0.14,,,0.51,weatherlink.com 1.10,2013-08-09 17:39:00,
2013-08-09 13:54:00,71.7,70.0,29.84,East,96,3.0,7.0,93,0.17,,,0.57,weatherlink.com 1.10,2013-08-09 17:54:00,
2013-08-09 14:09:00,71.5,70.0,29.83,ESE,105,4.0,6.0,94,0.24,,,0.68,weatherlink.com 1.10,2013-08-09 18:09:00,
2013-08-09 14:24:00,71.6,70.0,29.83,SE,127,0.0,3.0,95,0.29,,,0.76,weatherlink.com 1.10,2013-08-09 18:24:00,
2013-08-09 14:39:00,71.7,70.0,29.82,ESE,111,1.0,7.0,95,0.49,,,1.00,weatherlink.com 1.10,2013-08-09 18:39:00,
2013-08-09 14:54:00,71.7,70.0,29.79,SE,146,1.0,7.0,95,0.57,,,1.14,weatherlink.com 1.10,2013-08-09 18:54:00,
2013-08-09 15:09:00,71.8,70.0,29.78,South,190,1.0,8.0,95,0.54,,,1.23,weatherlink.com 1.10,2013-08-09 19:09:00,
2013-08-09 15:24:00,72.1,71.0,29.77,ENE,62,1.0,5.0,95,0.50,,,1.27,weatherlink.com 1.10,2013-08-09 19:24:00,
2013-08-09 15:39:00,72.4,71.0,29.76,ESE,116,0.0,6.0,95,0.26,,,1.27,weatherlink.com 1.10,2013-08-09 19:39:00,
2013-08-09 15:54:00,72.6,71.0,29.76,ESE,105,0.0,5.0,95,0.13,,,1.28,weatherlink.com 1.10,2013-08-09 19:54:00,
2013-08-09 16:09:00,72.9,71.0,29.75,SSW,210,1.0,4.0,95,0.05,,,1.28,weatherlink.com 1.10,2013-08-09 20:09:00,
2013-08-09 16:24:00,73.3,72.0,29.74,ESE,113,3.0,7.0,95,0.01,,,1.28,weatherlink.com 1.10,2013-08-09 20:24:00,
2013-08-09 16:39:00,73.7,72.0,29.74,WSW,249,1.0,9.0,95,0.02,,,1.29,weatherlink.com 1.10,2013-08-09 20:39:00,
2013-08-09 16:54:00,74.0,73.0,29.74,WSW,252,2.0,10.0,95,0.03,,,1.31,weatherlink.com 1.10,2013-08-09 20:54:00,
2013-08-09 17:09:00,74.2,73.0,29.74,SW,214,0.0,7.0,95,0.07,,,1.35,weatherlink.com 1.10,2013-08-09 21:09:00,
2013-08-09 17:24:00,74.3,73.0,29.74,WSW,248,0.0,6.0,95,0.14,,,1.42,weatherlink.com 1.10,2013-08-09 21:24:00,
2013-08-09 17:39:00,74.7,73.0,29.73,NW,310,4.0,6.0,95,0.14,,,1.43,weatherlink.com 1.10,2013-08-09 21:39:00,
2013-08-09 17:55:00,74.8,73.0,29.74,SSW,203,4.0,8.0,95,0.16,,,1.47,weatherlink.com 1.10,2013-08-09 21:55:00,
2013-08-09 18:10:00,74.7,73.0,29.74,SW,225,2.0,3.0,95,0.16,,,1.51,weatherlink.com 1.10,2013-08-09 22:10:00,
2013-08-09 18:25:00,75.0,74.0,29.74,WNW,287,0.0,3.0,95,0.09,,,1.51,weatherlink.com 1.10,2013-08-09 22:25:00,
2013-08-09 18:40:00,75.3,74.0,29.74,SW,234,0.0,3.0,95,0.08,,,1.51,weatherlink.com 1.10,2013-08-09 22:40:00,
2013-08-09 18:55:00,75.6,74.0,29.74,WSW,254,0.0,3.0,95,0.03,,,1.51,weatherlink.com 1.10,2013-08-09 22:55:00,
2013-08-09 19:10:00,75.9,74.0,29.74,West,278,1.0,3.0,95,0.00,,,1.51,weatherlink.com 1.10,2013-08-09 23:10:00,
2013-08-09 19:25:00,75.8,74.0,29.74,WSW,252,0.0,4.0,94,0.00,,,1.51,weatherlink.com 1.10,2013-08-09 23:25:00,
2013-08-09 19:40:00,75.5,74.0,29.75,WNW,283,0.0,2.0,95,0.00,,,1.51,weatherlink.com 1.10,2013-08-09 23:40:00,
2013-08-09 19:55:00,75.3,74.0,29.75,West,260,0.0,3.0,95,0.00,,,1.51,weatherlink.com 1.10,2013-08-09 23:55:00,
2013-08-09 20:10:00,75.1,74.0,29.76,WSW,241,0.0,2.0,95,0.00,,,1.51,weatherlink.com 1.10,2013-08-10 00:10:00,
2013-08-09 20:25:00,74.9,73.0,29.76,WSW,241,0.0,2.0,95,0.00,,,1.51,weatherlink.com 1.10,2013-08-10 00:25:00,
2013-08-09 20:40:00,74.8,73.0,29.76,WSW,242,0.0,3.0,95,0.00,,,1.51,weatherlink.com 1.10,2013-08-10 00:40:00,
2013-08-09 20:55:00,74.6,73.0,29.77,NW,315,0.0,2.0,95,0.00,,,1.51,weatherlink.com 1.10,2013-08-10 00:55:00,
2013-08-09 21:10:00,74.5,73.0,29.77,WSW,241,0.0,3.0,96,0.00,,,1.51,weatherlink.com 1.10,2013-08-10 01:10:00,
2013-08-09 21:25:00,74.5,73.0,29.76,WSW,250,0.0,3.0,95,0.00,,,1.51,weatherlink.com 1.10,2013-08-10 01:25:00,
2013-08-09 21:40:00,74.4,73.0,29.76,West,264,0.0,3.0,95,0.00,,,1.51,weatherlink.com 1.10,2013-08-10 01:40:00,
2013-08-09 21:55:00,74.1,73.0,29.76,West,260,2.0,2.0,95,0.00,,,1.51,weatherlink.com 1.10,2013-08-10 01:55:00,
2013-08-09 22:10:00,74.0,73.0,29.76,West,267,0.0,4.0,95,0.00,,,1.51,weatherlink.com 1.10,2013-08-10 02:10:00,
2013-08-09 22:25:00,73.7,72.0,29.77,WSW,244,0.0,1.0,95,0.00,,,1.51,weatherlink.com 1.10,2013-08-10 02:25:00,
2013-08-09 22:40:00,73.2,72.0,29.77,SW,229,0.0,0.0,95,0.00,,,1.51,weatherlink.com 1.10,2013-08-10 02:40:00,
2013-08-09 22:55:00,72.8,71.0,29.77,SW,228,0.0,0.0,95,0.00,,,1.51,weatherlink.com 1.10,2013-08-10 02:55:00,
2013-08-09 23:10:00,72.3,71.0,29.78,SW,228,0.0,0.0,95,0.00,,,1.51,weatherlink.com 1.10,2013-08-10 03:10:00,
2013-08-09 23:25:00,72.2,71.0,29.77,SE,144,0.0,0.0,95,0.00,,,1.51,weatherlink.com 1.10,2013-08-10 03:25:00,
2013-08-09 23:40:00,71.9,71.0,29.77,SE,144,0.0,0.0,96,0.00,,,1.51,weatherlink.com 1.10,2013-08-10 03:40:00,
2013-08-09 23:55:00,71.7,71.0,29.78,SE,144,0.0,0.0,96,0.00,,,1.51,weatherlink.com 1.10,2013-08-10 03:55:00,